Location: Chuathbaluk
(61.5726°N, 159.2454°W)
Time: 01:00:05
(UTC+00:00)

VELOX 1 - Visible Passes

Search period start: 24 January 2021 00:00
Search period end: 03 February 2021 00:00
Orbit: 627 x 643 km, 98.3° (Epoch: 23 January)

Date Brightness Start Highest point End Pass type
(mag) Time Alt. Az. Time Alt. Az. Time Alt. Az.
24 Jan ? 03:50:56 10° N 03:55:02 39° WNW 03:59:06 10° SW visible
24 Jan ? 05:28:22 10° N 05:30:26 13° NW 05:32:28 10° WNW visible
25 Jan ? 04:13:05 10° N 04:16:55 29° NW 04:20:42 10° WSW visible
25 Jan ? 05:51:05 10° NNW 05:52:06 11° NNW 05:53:07 10° NW visible
26 Jan ? 04:35:17 10° N 04:38:43 23° NW 04:42:08 10° W visible
27 Jan ? 03:20:28 10° NNE 03:24:49 61° WNW 03:29:08 10° SW visible
27 Jan ? 04:57:33 10° N 05:00:30 18° NW 05:03:26 10° W visible
28 Jan ? 03:42:34 10° N 03:46:45 44° WNW 03:50:55 10° SW visible
28 Jan ? 05:19:53 10° N 05:22:14 14° NW 05:24:34 10° WNW visible
29 Jan ? 04:04:42 10° N 04:08:39 33° NW 04:12:33 10° WSW visible
29 Jan ? 05:42:25 10° NNW 05:43:55 12° NNW 05:45:26 10° NW visible
30 Jan ? 04:26:53 10° N 04:30:29 25° NW 04:34:03 10° WSW visible
31 Jan ? 04:49:07 10° N 04:52:16 20° NW 04:55:25 10° W visible
01 Feb ? 03:34:11 10° NNE 03:38:27 50° WNW 03:42:41 10° SW visible
01 Feb ? 05:11:24 10° N 05:14:01 16° NW 05:16:37 10° WNW visible
02 Feb ? 03:56:19 10° N 04:00:21 37° WNW 04:04:23 10° SW visible
02 Feb ? 05:33:50 10° N 05:35:43 13° NW 05:37:36 10° WNW visible
